Weather History for Garrison, ND

Change the Weather History Date:

Sunday, October 16, 2011

  Actual Average Record
Temperature  
Mean Temperature 42 °F -  
Max Temperature 51 °F 53 °F 70 °F (1997)
Min Temperature 33 °F 30 °F 12 °F (2004)
Degree Days  
Heating Degree Days 23    
Month to date heating degree days 181  
Moisture  
Dew Point 30 °F    
Average Humidity 67    
Maximum Humidity 92    
Minimum Humidity 42    
Precipitation  
Precipitation 0.00 in - - ()
Month to date precipitation 0.71  
Year to date precipitation 16.74  
Sea Level Pressure  
Sea Level Pressure 30.04 in    
Wind  
Wind Speed 14 mph (WNW)    
Max Wind Speed 28 mph    
Max Gust Speed 35 mph    
Averages and records for this station are not official NWS values.
T = Trace of Precipitation, MM = Missing Value Source: NWS Daily Summary

Daily Weather History Graph

Daily Weather History Graph

Search for Another Location

Airport:

Trip Planner

Search our weather history database for the weather conditions in past years. The results will help you decide how hot, cold, wet, or windy it might be!

Date:

Astronomy

Oct. 16, 2011 Rise Set
Actual Time 8:05 AM CDT 6:56 PM CDT
Civil Twilight 7:34 AM CDT 7:27 PM CDT
Nautical Twilight 6:58 AM CDT 8:02 PM CDT
Astronomical Twilight 6:23 AM CDT 8:38 PM CDT
Moon 9:24 PM CDT (10/16) 12:43 PM CDT (10/16)
Length of Visible Light 11h 52m
Length of Day
10h 50m
Waning Gibbous, 82% of the Moon is Illuminated
Oct 16
Waning Gibbous
Oct 19
Last Quarter
Oct 26
New
Nov 2
First Quarter
Nov 10
Full

Hourly Weather History & Observations

Time (CDT) Temp. Windchill Dew Point Humidity Pressure Visibility Wind Dir Wind Speed Gust Speed Precip Events Conditions
12:52 AM 39.9 °F 33.9 °F 37.0 °F 89% 29.95 in - West 9.2 mph - 0.02 in   Unknown
1:52 AM 39.0 °F 32.3 °F 37.0 °F 93% 29.97 in - WNW 10.4 mph - N/A   Unknown
2:52 AM 39.0 °F 32.3 °F 36.0 °F 89% 29.99 in - WNW 10.4 mph - N/A   Unknown
3:52 AM 37.0 °F 29.8 °F 33.1 °F 86% 30.00 in - WNW 10.4 mph - N/A   Unknown
4:52 AM 36.0 °F 27.5 °F 32.0 °F 86% 30.03 in - WNW 12.7 mph - N/A   Unknown
5:52 AM 35.1 °F 26.4 °F 30.9 °F 85% 30.04 in - WNW 12.7 mph - N/A   Unknown
6:52 AM 34.0 °F 25.5 °F 30.9 °F 89% 30.06 in - WNW 11.5 mph - N/A   Unknown
7:52 AM 33.1 °F 24.4 °F 30.0 °F 89% 30.08 in - WNW 11.5 mph - N/A   Unknown
8:52 AM 34.0 °F 25.0 °F 30.0 °F 85% 30.09 in - WNW 12.7 mph - N/A   Unknown
9:52 AM 37.0 °F 28.9 °F 32.0 °F 82% 30.10 in - WNW 12.7 mph - N/A   Unknown
10:52 AM 39.9 °F 31.4 °F 33.1 °F 77% 30.09 in - NW 16.1 mph - N/A   Unknown
11:52 AM 44.1 °F 35.9 °F 32.0 °F 63% 30.09 in - NW 19.6 mph 26.5 mph N/A   Unknown
12:52 PM 45.0 °F 36.4 °F 30.0 °F 56% 30.09 in - WNW 23.0 mph 28.8 mph N/A   Unknown
1:52 PM 48.0 °F - 28.9 °F 48% 30.06 in - NW 23.0 mph 31.1 mph N/A   Unknown
2:52 PM 48.9 °F - 28.9 °F 46% 30.05 in - WNW 17.3 mph 27.6 mph N/A   Unknown
3:52 PM 50.0 °F - 28.9 °F 44% 30.04 in - WNW 13.8 mph 25.3 mph N/A   Unknown
4:52 PM 50.0 °F - 28.0 °F 43% 30.03 in - WNW 13.8 mph - N/A   Unknown
5:52 PM 48.9 °F - 27.0 °F 43% 30.03 in - NW 13.8 mph - N/A   Unknown
6:52 PM 44.1 °F 39.5 °F 27.0 °F 51% 30.03 in - WNW 8.1 mph - N/A   Unknown
7:52 PM 39.0 °F 32.8 °F 28.0 °F 65% 30.03 in - WNW 9.2 mph - N/A   Unknown
8:52 PM 37.0 °F 31.6 °F 27.0 °F 67% 30.03 in - WNW 6.9 mph - N/A   Unknown
9:52 PM 37.0 °F 31.6 °F 26.1 °F 65% 30.03 in - WNW 6.9 mph - N/A   Unknown
10:52 PM 35.1 °F 28.6 °F 26.1 °F 70% 30.04 in - WNW 8.1 mph - N/A   Unknown
11:52 PM 35.1 °F 28.6 °F 26.1 °F 70% 30.03 in - West 8.1 mph - N/A   Unknown